Location: Zagreb
(45.8000°N, 16.0000°E)
Time: 09:02:16
(UTC+02:00)

Courier 1B Rocket - Pass Details

Date: 17 August 2022
Orbit: 920 x 1202 km, 28.2° (Epoch: 25 September)

Event Time Altitude Azimuth Distance (km) Brightness Sun altitude
Rises 17:57:37 0° 242° (WSW) 3,548 9.1 20.3°
Reaches altitude 10° 18:01:44 10° 217° (SW) 2,604 7.9 19.6°
Maximum altitude 18:04:31 13° 190° (S) 2,382 7.3 19.1°
Drops below altitude 10° 18:07:20 10° 163° (SSE) 2,629 7.2 18.6°
Sets 18:11:32 0° 137° (SE) 3,611 7.6 17.9°
